Flag for Germany Weather past 2 weeks in Kleve, North Rhine-Westphalia, Germany

Now
30 °F

Passing clouds.


Feels Like: 21 °F
Forecast: 22 / 36 °F
Wind: 10 mph from Northeast

Location: Niederrhein

Current Time: Dec 28, 2014 at 2:06:30 AM

Latest Report: Dec 27, 2014 at 11:50 PM


Visibility: N/A

Pressure: 29.77 "Hg

Humidity: 80%

Dew point: 25 °F

Location of KleveLocation

Historic Weather in Kleve — Graph

°F

Kleve temperature yesterday

Maximum temperature yesterday: 34 °F (at 5:20 AM)
Minimum temperature yesterday: 30 °F (at 11:50 PM)
Average temperature yesterday: 33 °F

Past Weeks' High & Low Weather Summary

 TemperatureHumidityPressure
High55 °F (Dec 18, 3:50 PM)100% (Dec 12, 11:20 PM)30.42 "Hg (Dec 12, 11:20 PM)
Low30 °F (Dec 27, 11:50 PM)67% (Dec 23, 11:50 AM)29.42 "Hg (Dec 27, 9:20 AM)
Average44 °F95%29.96 "Hg
* Reported Dec 12 11:20 PM — Dec 27 11:50 PM, Kleve, Weather by CustomWeather, © 2014

Note: Actual official high and low records may vary slightly from our data, if they occured in-between our weather recording intervals... More about our weather records

Advertising

Kleve weather history for previous 24 hours

 ConditionsComfort  
Time TempWeatherWind HumidityBarometerVisibility
11:50 PM
Dec 27
30 °FPassing clouds.10 mph80%29.77 "HgN/A
11:20 PM32 °FPassing clouds.12 mph69%29.74 "HgN/A
10:50 PM32 °FPassing clouds.10 mph69%29.74 "HgN/A
10:20 PM32 °FPassing clouds.8 mph69%29.71 "HgN/A
9:50 PM32 °FPassing clouds.9 mph69%29.68 "HgN/A
9:20 PM34 °FPassing clouds.10 mph70%29.68 "HgN/A
8:50 PM34 °FPassing clouds.9 mph75%29.65 "HgN/A
8:20 PM34 °FPassing clouds.12 mph81%29.62 "HgN/A
7:50 PM34 °FPassing clouds.10 mph87%29.62 "HgN/A
7:20 PM34 °FPassing clouds.8 mph100%29.59 "HgN/A
6:50 PM34 °FLight snow. Partly cloudy.10 mph100%29.56 "Hg4 mi
6:20 PM34 °FLight snow. Passing clouds.10 mph100%29.56 "Hg4 mi
5:20 PM34 °FLight snow. Broken clouds.10 mph100%29.53 "Hg5 mi
4:50 PM34 °FPartly sunny.9 mph100%29.50 "HgN/A
4:20 PM34 °FPartly sunny.9 mph100%29.50 "HgN/A
3:50 PM34 °FPartly sunny.9 mph100%29.47 "HgN/A
3:20 PM34 °FPartly sunny.8 mph100%29.47 "HgN/A
2:50 PM34 °FPartly sunny.8 mph100%29.45 "HgN/A
2:20 PM34 °FPartly sunny.9 mph100%29.45 "HgN/A
1:50 PM34 °FLight snow. Partly sunny.10 mph100%29.45 "Hg2 mi
1:20 PM34 °FSnow. Partly sunny.9 mph100%29.45 "Hg1 mi
12:50 PM32 °FSnow. Partly sunny.12 mph100%29.42 "Hg1 mi
12:20 PM32 °FLight snow. Partly sunny.10 mph100%29.42 "Hg3 mi
11:50 AM32 °FLight snow. Ice fog.12 mph100%29.45 "Hg1 mi
11:20 AM32 °FLight snow. Ice fog.12 mph100%29.42 "Hg1 mi
10:50 AM32 °FLight snow. Partly sunny.13 mph100%29.42 "Hg3 mi
10:20 AM32 °FSnow. Partly sunny.13 mph100%29.42 "Hg1 mi
9:50 AM32 °FRain. Partly sunny.14 mph100%29.42 "Hg1 mi
9:20 AM32 °FHeavy rain. Fog.14 mph100%29.42 "Hg1 mi
8:50 AM32 °FHeavy rain. Fog.16 mph100%29.45 "Hg1 mi
8:20 AM32 °FHeavy rain. Fog.16 mph100%29.45 "Hg1 mi
7:50 AM32 °FHeavy rain. Fog.20 mph100%29.45 "Hg1 mi
7:20 AM32 °FRain. Fog.20 mph100%29.47 "Hg1 mi
6:50 AM34 °FRain. Fog.20 mph100%29.50 "Hg1 mi
6:20 AM34 °FRain. Fog.20 mph100%29.53 "Hg1 mi
5:50 AM34 °FRain. Fog.18 mph100%29.56 "Hg1 mi
5:20 AM34 °FRain. Fog.18 mph100%29.59 "Hg2 mi
Weather by CustomWeather, © 2014

See weather overviewHow to use our weather pages